This is the latest recevied weather packets stored in our database for station/object K7CTM. If no packets are shown the sender has not sent any weather packets the latest 10 day(s).
| Time | Temp. | Humidity | Pressure | Rain* | Wind** | Luminosity | Snow |
|---|---|---|---|---|---|---|---|
| 1777431853 | 6.11° C | 70% | 1028.7 hPa | 0 mm | - | 0 W/m² | - |
| 1777431550 | 6.67° C | 67% | 1028.6 hPa | 0 mm | - | 0 W/m² | - |
| 1777431246 | 6.67° C | 68% | 1028.6 hPa | 0 mm | - | 0 W/m² | - |
| 1777430942 | 6.67° C | 68% | 1028.3 hPa | 0 mm | - | 0 W/m² | - |
| 1777430639 | 6.67° C | 68% | 1028.2 hPa | 0 mm | - | 0 W/m² | - |
| 1777430334 | 6.11° C | 69% | 1028.1 hPa | 0 mm | - | 0 W/m² | - |
| 1777430029 | 6.67° C | 69% | 1028.3 hPa | 0 mm | - | 1 W/m² | - |
| 1777429726 | 6.67° C | 68% | 1028 hPa | 0 mm | - | 1 W/m² | - |
| 1777429422 | 6.67° C | 66% | 1028 hPa | 0 mm | - | 3 W/m² | - |
| 1777429118 | 6.67° C | 66% | 1028.1 hPa | 0 mm | - | 4 W/m² | - |
| 1777428815 | 6.67° C | 66% | 1028 hPa | 0 mm | - | 6 W/m² | - |
| 1777428510 | 7.22° C | 66% | 1028 hPa | 0 mm | - | 9 W/m² | - |
| 1777428206 | 7.22° C | 67% | 1027.8 hPa | 0 mm | - | 15 W/m² | - |
| 1777427902 | 7.78° C | 64% | 1027.8 hPa | 0 mm | - | 18 W/m² | - |
| 1777427598 | 7.78° C | 64% | 1028.1 hPa | 0 mm | - | 15 W/m² | - |
| 1777427295 | 7.78° C | 65% | 1028.2 hPa | 0 mm | - | 17 W/m² | - |
| 1777426992 | 7.78° C | 65% | 1028.2 hPa | 0 mm | - | 25 W/m² | - |
| 1777426689 | 7.22° C | 65% | 1027.9 hPa | 0 mm | - | 27 W/m² | - |
| 1777426385 | 7.22° C | 65% | 1028 hPa | 0 mm | - | 32 W/m² | - |
| 1777426081 | 7.22° C | 65% | 1027.9 hPa | 0 mm | - | 24 W/m² | - |
| 1777425777 | 7.22° C | 67% | 1028.1 hPa | 0 mm | - | 23 W/m² | - |
| 1777425471 | 7.22° C | 66% | 1027.7 hPa | 0 mm | - | 10 W/m² | - |
| 1777425168 | 7.22° C | 65% | 1027.7 hPa | 0 mm | - | 13 W/m² | - |
| 1777424864 | 7.22° C | 66% | 1027.4 hPa | 0 mm | - | 25 W/m² | - |
| 1777424560 | 7.22° C | 66% | 1027.4 hPa | 0 mm | - | 44 W/m² | - |
* Rain latest hour (hover to see other rain measurements)
** Current wind speed in m/s (hover to see current wind gust speed)